KC3BBT-13 Weather Reports


time (UTC)temp
F
wind
direction
speed
knots
gust
knots
rain 1hr
in
rain 24hr
in
rain mn
in
humidity
%
barometer
mb
20260505124016 64 200 1.7 1.7 0.00 0.00 0.00 57 1013.6
20260505122657 64 0 0.0 2.6 0.00 0.00 0.00 58 1013.7
20260505122551 64 0 0.0 2.6 0.00 0.00 0.00 58 1013.7
20260505121301 63 209 2.6 2.6 0.00 0.00 0.00 59 1013.5
20260505120016 62 0 0.0 2.6 0.00 0.00 0.00 59 1013.4
20260505114631 62 0 0.0 2.6 0.00 0.00 0.00 60 1013.2
20260505113407 61 0 0.0 1.7 0.00 0.00 0.00 60 1013.2
20260505112141 61 0 0.0 2.6 0.00 0.00 0.00 60 1013.2
20260505110846 61 0 0.0 5.2 0.00 0.00 0.00 60 1013.0
20260505110726 61 0 0.0 5.2 0.00 0.00 0.00 60 1013.0
20260505101411 60 230 1.7 6.1 0.00 0.00 0.00 61 1012.5
20260505100316 60 0 0.0 3.5 0.00 0.00 0.00 62 1012.5
20260505095926 60 0 0.0 3.5 0.00 0.00 0.00 62 1012.5
20260505094550 60 0 0.0 4.3 0.00 0.00 0.00 62 1012.4
20260505093159 60 0 0.0 2.6 0.00 0.00 0.00 62 1012.3
20260505091955 60 0 0.0 0.0 0.00 0.00 0.00 62 1012.2
20260505090631 61 142 4.3 4.3 0.00 0.00 0.00 62 1012.0
20260505085414 61 0 0.0 0.0 0.00 0.00 0.00 63 1012.2
20260505085246 61 0 0.0 0.0 0.00 0.00 0.00 63 1012.2
20260505083946 61 0 0.0 2.6 0.00 0.00 0.00 63 1012.3
20260505082546 61 0 0.0 4.3 0.00 0.00 0.00 63 1012.3
20260505082448 61 0 0.0 4.3 0.00 0.00 0.00 63 1012.3
20260505081314 61 0 0.0 4.3 0.00 0.00 0.00 62 1012.2
20260505081131 61 0 0.0 4.3 0.00 0.00 0.00 62 1012.2
20260505075907 61 140 3.5 4.3 0.00 0.00 0.00 62 1012.1
20260505074611 61 0 0.0 2.6 0.00 0.00 0.00 62 1012.1
20260505073346 62 0 0.0 3.5 0.00 0.00 0.00 61 1012.1
20260505072124 62 0 0.0 4.3 0.00 0.00 0.00 61 1012.0
20260505071901 62 0 0.0 4.3 0.00 0.00 0.00 61 1012.0
20260505070436 62 0 0.0 0.0 0.00 0.00 0.00 60 1012.0
20260505065442 62 0 0.0 0.0 0.00 0.00 0.00 60 1011.9
20260505065146 62 0 0.0 0.0 0.00 0.00 0.00 60 1011.9
20260505064032 62 0 0.0 0.9 0.00 0.00 0.00 60 1011.8
20260505063841 62 0 0.0 0.9 0.00 0.00 0.00 60 1011.8
20260505062441 62 0 0.0 2.6 0.00 0.00 0.00 61 1011.9
20260505061130 62 0 0.0 0.0 0.00 0.00 0.00 62 1011.9
20260505061022 62 0 0.0 0.0 0.00 0.00 0.00 62 1011.9
20260505055726 62 0 0.0 0.0 0.00 0.00 0.00 62 1011.9
20260505054301 62 0 0.0 0.0 0.00 0.00 0.00 61 1011.9
20260505052935 63 0 0.0 0.0 0.00 0.00 0.00 59 1011.9
20260505052818 63 0 0.0 0.0 0.00 0.00 0.00 59 1011.9
20260505051808 64 0 0.0 0.0 0.00 0.00 0.00 58 1012.0
20260505051601 64 0 0.0 0.0 0.00 0.00 0.00 58 1012.0
20260505050605 64 0 0.0 0.0 0.00 0.00 0.00 57 1012.1
20260505050324 64 0 0.0 0.0 0.00 0.00 0.00 57 1012.1
20260505041156 65 0 0.0 0.9 0.00 0.00 0.00 53 1012.1
20260505035716 66 0 0.0 0.0 0.00 0.00 0.00 52 1012.0
20260505034427 66 0 0.0 0.0 0.00 0.00 0.00 51 1011.9
20260505033204 67 0 0.0 0.9 0.00 0.00 0.00 51 1011.9
20260505031806 67 0 0.0 1.7 0.00 0.00 0.00 50 1012.0
20260505030531 67 0 0.0 0.0 0.00 0.00 0.00 50 1011.9
20260505025316 67 0 0.0 2.6 0.00 0.00 0.00 49 1011.8
20260505024031 68 0 0.0 0.0 0.00 0.00 0.00 49 1011.9
20260505022533 68 229 1.7 1.7 0.00 0.00 0.00 48 1011.9
20260505021156 68 0 0.0 1.7 0.00 0.00 0.00 48 1011.8
20260505020121 69 177 0.9 1.7 0.00 0.00 0.00 47 1011.7
20260505015746 69 177 0.9 1.7 0.00 0.00 0.00 47 1011.7
20260505014307 69 0 0.0 0.9 0.00 0.00 0.00 46 1011.7
20260505013002 70 154 0.9 3.5 0.00 0.00 0.00 44 1011.4
20260505011736 70 0 0.0 0.0 0.00 0.00 0.00 44 1011.4
20260505010526 71 0 0.0 0.0 0.00 0.00 0.00 44 1011.2
20260505005141 71 0 0.0 0.0 0.00 0.00 0.00 43 1011.2
20260505003942 71 198 0.9 5.2 0.00 0.00 0.00 42 1011.1
20260505002621 72 0 0.0 0.9 0.00 0.00 0.00 42 1011.1
20260505001903 72 0 0.0 4.3 0.00 0.00 0.00 41 1011.0
20260505001346 72 0 0.0 4.3 0.00 0.00 0.00 41 1011.0
20260505000126 72 0 0.0 3.5 0.00 0.00 0.00 41 1011.0
20260504235034 73 0 0.0 6.1 0.00 0.00 0.00 43 1011.0
20260504234847 73 0 0.0 6.1 0.00 0.00 0.00 43 1011.0
20260504233607 73 0 0.0 0.0 0.00 0.00 0.00 38 1010.9
20260504232215 73 0 0.0 3.5 0.00 0.00 0.00 38 1010.8
20260504230941 74 0 0.0 3.5 0.00 0.00 0.00 37 1010.8
20260504230030 74 213 5.2 7.8 0.00 0.00 0.00 37 1010.8
20260504225637 74 213 5.2 7.8 0.00 0.00 0.00 37 1010.8
20260504224146 74 195 3.5 9.6 0.00 0.00 0.00 36 1010.8
20260504222750 74 147 0.9 8.7 0.00 0.00 0.00 36 1010.9
20260504221341 74 282 1.7 11.3 0.00 0.00 0.00 35 1010.8
20260504215846 74 223 2.6 7.8 0.00 0.00 0.00 36 1010.8
20260504214441 76 0 0.0 10.4 0.00 0.00 0.00 33 1010.8
20260504213218 77 215 2.6 12.2 0.00 0.00 0.00 32 1010.8
20260504211751 76 254 6.1 12.2 0.00 0.00 0.00 32 1010.8
20260504210446 77 194 6.1 6.1 0.00 0.00 0.00 31 1010.8
20260504205246 50 0 0.0 0.0 0.00 0.00 0.00 57 1016.4
20260504203921 50 0 0.0 0.0 0.00 0.00 0.00 57 1016.4
20260504202501 50 0 0.0 0.0 0.00 0.00 0.00 57 1016.4
20260504201106 50 0 0.0 0.0 0.00 0.00 0.00 57 1016.4
20260504200748 50 0 0.0 0.0 0.00 0.00 0.00 57 1016.4
20260504195733 50 0 0.0 0.0 0.00 0.00 0.00 57 1016.4
20260504194436 50 0 0.0 0.0 0.00 0.00 0.00 57 1016.4
20260504193100 50 0 0.0 0.0 0.00 0.00 0.00 57 1016.4
20260504191626 50 0 0.0 0.0 0.00 0.00 0.00 57 1016.4
20260504190351 50 0 0.0 0.0 0.00 0.00 0.00 57 1016.4
20260504185018 50 0 0.0 0.0 0.00 0.00 0.00 57 1016.4
20260504184914 50 0 0.0 0.0 0.00 0.00 0.00 57 1016.4
20260504183511 50 0 0.0 0.0 0.00 0.00 0.00 57 1016.4
20260504182256 50 0 0.0 0.0 0.00 0.00 0.00 57 1016.4
20260504180911 50 0 0.0 0.0 0.00 0.00 0.00 57 1016.4
20260504180025 50 0 0.0 0.0 0.00 0.00 0.00 57 1016.4
20260504175551 50 0 0.0 0.0 0.00 0.00 0.00 57 1016.4
20260504174356 50 0 0.0 0.0 0.00 0.00 0.00 57 1016.4
20260504173033 50 0 0.0 0.0 0.00 0.00 0.00 57 1016.4
20260504171855 50 0 0.0 0.0 0.00 0.00 0.00 57 1016.4
20260504171721 50 0 0.0 0.0 0.00 0.00 0.00 57 1016.4
20260504170401 50 0 0.0 0.0 0.00 0.00 0.00 57 1016.4
20260504151146 50 0 0.0 0.0 0.00 0.00 0.00 57 1016.4
20260504140146 50 0 0.0 0.0 0.00 0.00 0.00 57 1016.4
20260504130611 50 0 0.0 0.0 0.00 0.00 0.00 57 1016.4